Wind_Speed
5 5 7 8 10 10 11 13 15 15 13 13 12 12 11 13 14 17 18 18 19 19 18 20 23 23 22 21 25 25 24 26
3 5 6 7 9 10 12 14 16 16 15 15 14 16 14 15 17 19 19 20 20 19 19 20 20 22 24 24 27 27 27 25
3 3 5 7 9 10 12 13 14 14 13 13 13 13 12 14 17 19 21 22 22 20 21 20 21 24 24 25 24 25 28 25
3 3 6 8 9 10 11 12 12 13 14 13 14 12 13 17 20 21 23 22 21 20 20 22 23 23 25 24 25 25 25 27
2 3 5 8 8 8 9 10 11 13 14 14 15 15 16 17 18 19 20 21 21 20 21 24 23 24 26 26 26 28 25 24
3 4 6 8 7 8 8 9 10 12 13 13 13 14 14 15 17 19 19 19 18 20 21 22 24 25 26 27 29 29 27 27
4 5 5 7 7 7 7 9 10 12 13 13 13 14 15 16 18 18 20 19 20 21 25 22 23 24 26 29 29 28 29 30
4 4 5 6 7 7 8 10 11 13 13 13 14 15 15 15 18 19 21 23 24 26 27 27 26 27 27 28 29 30 28 29
5 4 4 4 6 7 9 9 10 13 13 14 14 15 15 15 16 19 19 22 24 26 26 26 26 28 30 30 30 29 28 29
4 4 4 4 6 8 9 10 11 12 12 13 15 15 16 16 17 19 20 20 23 26 27 27 28 29 30 31 28 30 28 28
4 4 5 6 8 8 8 9 10 11 12 14 15 16 16 17 18 20 20 21 23 26 28 28 29 29 30 29 26 26 28 24
4 3 4 6 7 8 7 8 9 11 11 13 15 16 17 17 18 19 19 20 22 24 26 29 29 31 29 28 25 25 25 25
3 3 4 5 6 7 7 7 9 10 10 12 15 17 17 17 17 18 18 18 19 22 23 26 28 31 29 28 26 25 25 27
3 2 3 4 5 6 6 7 8 9 10 12 14 18 17 17 17 17 17 17 19 20 22 25 27 30 30 29 25 25 25 25
5 3 1 4 4 4 5 6 8 10 11 13 14 16 16 15 15 15 16 17 18 20 22 25 27 30 30 31 27 27 26 28
6 4 3 2 2 3 5 6 8 10 11 12 14 15 15 14 13 13 14 15 17 20 21 24 29 31 35 31 27 26 27 29
8 7 4 3 4 5 5 8 9 10 11 12 14 16 14 13 13 13 14 15 16 19 22 24 29 33 35 30 27 24 25 30
8 7 5 3 4 4 6 9 9 10 10 12 13 14 14 13 13 14 15 17 17 19 22 24 26 34 35 32 26 25 26 28
9 8 6 5 5 6 7 9 9 9 12 12 11 14 13 13 14 15 16 17 18 19 21 24 24 32 36 34 23 22 23 27
Wind_Direction
42 25 18 11 15 11 12 12 9 9 8 3 1 0 4 5 2 358 354 349 347 342 331 324 322 317 312 302 298 290 283 268
56 32 18 15 16 14 12 8 8 9 5 2 359 355 357 2 2 358 357 352 350 346 335 327 325 320 313 306 299 301 285 279
77 31 20 24 19 16 13 9 5 6 360 355 351 347 343 354 356 355 353 351 350 347 341 334 328 323 320 316 312 301 292 278
104 41 22 19 19 16 13 7 2 1 360 356 353 351 355 358 356 352 348 347 349 347 343 336 329 324 320 316 309 303 301 294
94 36 31 23 19 12 13 8 6 4 4 3 0 357 353 350 345 340 341 343 344 347 344 338 332 326 321 319 315 310 303 298
112 46 29 27 18 12 10 7 8 9 7 7 2 357 349 346 346 340 340 343 345 347 343 340 336 332 326 322 316 313 304 294
108 67 42 29 19 13 10 10 13 9 8 5 2 357 352 349 347 344 341 344 348 348 346 345 340 332 330 324 317 309 302 295
106 67 48 27 15 12 14 13 10 10 6 2 2 359 356 351 349 346 345 347 348 345 347 346 344 337 332 327 319 310 303 297
107 74 56 26 16 18 17 13 10 10 5 3 4 4 358 354 350 350 352 348 343 343 345 345 347 343 339 334 324 315 310 303
98 64 39 20 19 20 14 12 11 10 6 2 5 5 2 355 353 355 354 348 344 344 347 349 350 350 344 339 327 323 320 311
104 52 18 15 18 17 19 16 9 10 10 6 6 4 1 359 358 357 354 349 351 350 350 352 354 353 347 344 338 337 335 337
124 83 33 24 21 18 17 19 9 9 13 10 10 7 5 3 1 357 353 352 355 356 355 354 357 355 351 348 347 346 346 350
125 74 63 31 23 18 20 20 13 12 13 14 15 11 9 6 1 357 354 355 0 3 1 360 359 358 356 355 354 355 358 359
148 99 56 34 31 20 24 21 13 15 18 17 16 13 10 8 0 354 355 360 4 8 9 9 3 4 359 0 360 3 6 5
164 148 150 49 34 26 30 22 21 24 23 21 16 10 9 6 358 353 360 6 9 9 13 13 10 10 7 7 5 8 13 14
167 177 147 120 84 44 44 30 33 31 27 24 17 11 11 5 359 360 5 12 16 14 14 17 15 15 12 8 11 10 15 15
169 167 154 116 78 65 45 38 36 33 29 23 18 15 11 7 6 9 14 16 18 17 17 17 18 16 12 13 14 11 16 23
162 151 142 121 86 61 51 44 41 38 31 26 20 13 13 13 14 18 21 21 21 22 21 19 21 17 13 13 14 17 19 23
153 148 146 123 94 76 63 52 49 45 38 29 22 18 18 19 24 27 27 26 25 24 23 23 22 17 15 14 14 17 20 25
Height
855 856 855 854 851 850 848 845 842 839 836 835 832 829 826 822 818 815 812 809 805 802 798 795 790 786 781 778 774 769 765 760
855 855 855 853 851 849 847 845 842 839 837 834 831 829 826 821 817 814 811 808 804 801 798 793 789 785 780 775 771 766 760 756
851 854 853 850 850 849 847 846 845 842 839 836 832 829 826 821 816 813 810 807 803 799 796 792 788 782 777 773 769 763 757 753
848 849 850 849 848 847 846 847 847 844 840 835 832 829 825 820 816 812 810 807 803 799 795 791 786 781 774 769 766 762 755 747
847 849 849 849 848 848 846 846 846 844 840 837 834 830 826 823 819 815 810 806 802 797 793 789 783 779 774 766 762 759 753 745
847 849 849 849 849 848 847 846 846 844 841 838 834 832 828 824 820 816 812 806 801 797 793 787 782 776 770 764 758 754 750 745
848 848 849 849 849 849 847 846 845 844 842 839 835 832 828 824 821 817 812 805 799 795 790 785 779 775 768 762 755 751 744 737
844 846 847 850 850 848 847 845 845 843 842 840 835 831 827 824 820 816 810 803 797 793 787 782 776 772 767 760 753 746 739 732
845 847 848 850 850 847 845 845 844 842 841 839 835 830 828 824 821 815 809 804 800 794 787 782 776 771 763 756 748 742 734 727
847 850 851 851 848 846 846 845 844 841 839 838 834 830 827 824 820 815 810 806 801 794 787 780 774 768 762 755 749 741 732 724
849 853 854 851 847 845 844 845 845 841 838 837 833 831 827 824 819 815 811 808 800 793 787 780 773 768 763 757 749 740 732 723
852 853 853 850 849 847 846 845 845 841 838 837 834 830 827 824 821 818 814 809 802 796 789 782 774 769 764 757 750 742 733 724
852 851 850 851 850 849 847 846 845 842 839 837 834 830 827 825 823 820 817 812 806 798 792 786 778 771 765 758 751 744 735 725
851 852 851 851 850 850 848 846 845 842 839 836 833 831 828 825 825 823 819 814 808 801 796 789 782 774 767 759 753 746 738 731
849 850 853 850 850 851 849 847 845 841 838 836 834 832 829 826 827 826 821 815 809 804 798 791 786 779 771 761 754 748 741 734
846 850 850 850 851 850 848 847 844 840 839 837 835 832 829 829 829 826 821 816 811 806 801 794 787 780 773 765 758 754 746 738
843 846 847 848 847 846 847 845 842 840 839 837 834 831 831 831 829 825 821 817 812 808 803 796 790 784 777 769 763 759 753 742
838 841 845 847 846 846 845 843 841 840 839 837 835 835 833 831 829 825 820 817 813 809 805 800 793 789 782 773 768 762 757 751
836 840 844 845 845 845 843 842 842 841 839 839 838 837 835 833 829 826 821 818 814 811 808 803 798 793 785 778 772 768 763 756